Regional Weather Roundup
Issued by NWS Jackson, KY

Home | Current Version | Previous Version | Graphics & Text | Print | Product List | Glossary On
Versions: 1 2 3 4 5 6 7 8 9 10 11 12 13 14 15 16 17 18 19 20 21 22 23 24 25 26 27 28 29 30 31 32 33 34 35 36 37 38 39 40 41 42 43 44 45 46 47 48 49 50
000
ASUS43 KJKL 312119
RWRJKL

EAST KENTUCKY HOURLY WEATHER ROUNDUP
NATIONAL WEATHER SERVICE JACKSON KY
500 PM EDT THU JUL 31 2014

NOTE: "FAIR" INDICATES FEW OR NO CLOUDS BELOW 12,000 FEET WITH
NO SIGNIFICANT WEATHER AND/OR OBSTRUCTIONS TO VISIBILITY.

* THESE REPORTS ARE NOT UNDER NWS QUALITY CONTROL AND MAY NOT
  REPORT WEATHER SUCH AS PRECIPITATION AND FOG.

KYZ079-080-083-085-087-088-110-112-115-119-120-312200
...EASTERN KENTUCKY...

CITY           SKY/WX    TMP DP  RH WIND       PRES   REMARKS
JACKSON        MOSUNNY   81  55  40 CALM      30.12F
LONDON         MOSUNNY   82  55  39 N5        30.11F
SOMERSET*      MOSUNNY   81  54  39 NE3       30.10F
MONTICELLO*    MOSUNNY   82  62  50 E6        30.11F
WILLIAMSBURG*  SUNNY     81  54  39 CALM      30.10F
MIDDLESBORO*   MOSUNNY   82  60  46 CALM      30.10S
HARLAN APT*    MOCLDY    79  57  47 MISG      30.12S
BLACK MTN*       N/A     70  55  60 S5          N/A
PIKEVILLE APT* MOSUNNY   79  59  50 CALM      30.12F
BIG SANDY*     PTCLDY    80  57  45 CALM      30.11F
MOREHEAD APT*  MOCLDY    81  57  44 CALM      30.12S
ASHLAND*       MOSUNNY   82  61  47 NW3       30.06F
$$

KYZ035-036-041-042-044-050-067-078-099-312200
...CENTRAL KENTUCKY...

CITY           SKY/WX    TMP DP  RH WIND       PRES   REMARKS
MT STERLING*   MOSUNNY   79  61  53 CALM      30.11F
FLEMING/MASON* MOSUNNY   81  57  44 W3        30.10F
DANVILLE*      MOSUNNY   81  57  44 SE3       30.11F
RICHMOND*      PTSUNNY   79  54  41 CALM      30.10S
LEXINGTON      SUNNY     82  56  40 S5        30.09F
FRANKFORT      MOSUNNY   81  55  40 MISG      30.08F
$$

KYZ091>093-OHZ055-061-077-WVZ005-015-034-035-042-312200
...SOUTHERN OHIO/WEST VIRGINIA...

CITY           SKY/WX    TMP DP  RH WIND       PRES   REMARKS
COVINGTON      MOSUNNY   82  58  43 W8        30.08F
COLUMBUS       MOSUNNY   82  57  42 VRB5      30.07F
DAYTON         MOSUNNY   82  57  42 W12       30.09S
WILMINGTON     MOSUNNY   81  57  43 W7        30.08F
HUNTINGTON     MOSUNNY   81  55  40 S6        30.09F
CHARLESTON     MOSUNNY   83  56  39 VRB3      30.10F
PINEVILLE*     MOSUNNY   83  63  52 MISG      30.18F
BECKLEY        MOSUNNY   78  50  37 VRB6      30.17F
BLUEFIELD      PTSUNNY   79  55  43 VRB3      30.18F
$$

VAZ002-007-008-TNZ017-027-036-066-071-312200
...SOUTHWEST VIRGINIA/EAST TENNESSEE...

CITY           SKY/WX    TMP DP  RH WIND       PRES   REMARKS
WISE*          MOSUNNY   77  54  44 S5        30.18S
JONESVILLE*    PTCLDY    82  55  39 CALM      30.13S
ABINGDON*      CLOUDY    70  63  80 CALM      30.16F
BRISTOL        PTSUNNY   80  59  48 CALM      30.12F
KNOXVILLE      CLOUDY    81  59  47 VRB3      30.08F
OAK RIDGE      MOSUNNY   81  60  48 SE3       30.09F
CROSSVILLE     MOSUNNY   77  58  51 VRB6      30.12F
NASHVILLE      PTSUNNY   84  55  36 VRB3      30.06F
$$

...KEY TO REMARKS...
VSB - VISIBILITY IN MILES
WCI - WIND CHILL INDEX
HX  - HEAT INDEX

$$


USA.gov is the U.S. government's official web portal to all federal, state and local government web resources and services.